Regional Weather Roundup
Issued by NWS

Home | Current Version | Previous Version | Text Only | Print | Product List | Glossary Off
Versions: 1 2 3 4 5 6 7 8 9 10 11 12 13 14 15 16 17 18 19 20 21 22 23 24 25 26 27 28 29 30 31 32 33 34 35 36 37 38 39 40 41 42 43 44 45 46 47 48 49 50

295
ASUS43 KBIS 312310
RWRND

NORTH DAKOTA REGIONAL WEATHER ROUNDUP
NATIONAL WEATHER SERVICE BISMARCK ND
600 PM CDT TUE MAY 31 2016

NOTE: "FAIR" INDICATES FEW OR NO CLOUDS BELOW 12,000 FEET WITH NO
SIGNIFICANT WEATHER AND/OR OBSTRUCTIONS TO VISIBILITY.


NDZ001>003-009>011-017-010000-
NORTHWEST NORTH DAKOTA

CITY           SKY/WX    TMP DP  RH WIND       PRES   REMARKS
WILLISTON      LGT RAIN  54  49  83 NW21G26   29.89R
MINOT          CLOUDY    60  52  74 NW25G33   29.68R
MINOT AFB      CLOUDY    55  51  87 N22G31    29.67R
$$

NDZ018>021-031>035-040>046-010000-
SOUTHWEST NORTH DAKOTA

CITY           SKY/WX    TMP DP  RH WIND       PRES   REMARKS
BISMARCK       MOSUNNY   62  51  67 NW10      29.67R
DICKINSON      LGT RAIN  49  46  90 NW23G38   29.85R
GARRISON         N/A     57  52  83 NW32G38   29.67R
HETTINGER ARPT LGT RAIN  51  47  86 NW25G39   29.89R FOG
$$

NDZ004>008-012>016-024-026-027-054-010000-
NORTHEAST NORTH DAKOTA

CITY           SKY/WX    TMP DP  RH WIND       PRES   REMARKS
GRAND FORKS    MOSUNNY   67  49  52 S12       29.66F
GRND FRKS AFB  MOSUNNY   65  48  55 S15       29.65F
DEVILS LAKE    CLOUDY    59  45  58 SW15      29.65R THUNDER
$$

NDZ022-023-025-028>030-036>039-047>053-010000-
SOUTHEAST NORTH DAKOTA

CITY           SKY/WX    TMP DP  RH WIND       PRES   REMARKS
FARGO          SUNNY     71  45  39 S20G28    29.68F
JAMESTOWN      LGT RAIN  58  51  78 SW7       29.64F
$$





USA.gov is the U.S. government's official web portal to all federal, state and local government web resources and services.